Location: Asheville, NC
(35.6000°N, 82.5500°W)
Time: 15:56:57
(UTC-05:00)

Vanguard 3 - Pass Details

Date: 07 December 2017
Orbit: 508 x 3264 km, 33.4° (Epoch: 19 January)

Event Time Altitude Azimuth Distance (km) Brightness Sun altitude
Rises 14:34:18 0° 240° (WSW) 2,623 10.8 23.8°
Reaches altitude 10° 14:36:31 10° 231° (SW) 1,705 10.4 23.6°
Maximum altitude 14:39:56 38° 161° (SSE) 822 8.0 23.2°
Drops below altitude 10° 14:43:57 10° 93° (E) 2,017 9.0 22.7°
Sets 14:46:48 0° 85° (E) 3,195 9.8 22.4°
